User: anonymous   Login
Location: Unspecified
(0.0000°N, 0.0000°E)
Time: 21:47:14
(UTC+02:00)
Language:

Helios 1A Rocket - Orbit

View from above orbital plane
View from above orbital plane
View from above satellite
View from above satellite

Ground track
Ground track

The orbit data is extracted from the following two-line orbital elements,

1 23608U 95033D   15154.16825468  .00001406  00000-0  13574-3 0  9999
2 23608 098.2510 038.8208 0017241 185.0719 175.0328 14.94537955 76406
Epoch (UTC): 03 June 2015 04:02:17
Eccentricity: 0.0017241
inclination: 98.2510°
perigee height: 572 km
apogee height: 596 km
right ascension of ascending node: 38.8208°
argument of perigee: 185.0719°
revolutions per day: 14.94537955
mean anomaly at epoch: 175.0328°
orbit number at epoch: 7640

The dashed part of the orbit path shows where the satellite is in the earth's shadow,  

DLR